Flag for Austria Weather past 2 weeks in Oberpullendorf, Burgenland, Austria

Now
36 °F

Chilly.


Feels Like: 32 °F
Forecast: 22 / 36 °F
Wind: 6 mph from Northwest

Location: Eisenstadt

Current Time: Feb 2, 2015 at 12:50:15 AM

Latest Report: Feb 2, 2015 at 12:00 AM


Visibility: N/A

Pressure: 29.38 "Hg

Humidity: 66%

Dew point: 26 °F

Location of OberpullendorfLocation

Historic Weather in Oberpullendorf — Graph

°F

Oberpullendorf temperature yesterday

Maximum temperature yesterday: 35 °F (at 3:00 PM)
Minimum temperature yesterday: 26 °F (at 3:00 AM)
Average temperature yesterday: 30 °F

Past Weeks' High & Low Weather Summary

 TemperatureHumidityPressure
High45 °F (Jan 22, 3:00 PM)99% (Jan 20, 4:00 AM)30.31 "Hg (Jan 20, 4:00 AM)
Low26 °F (Jan 27, 3:00 AM)57% (Jan 31, 1:00 PM)28.82 "Hg (Jan 30, 4:00 PM)
Average36 °F82%29.84 "Hg
* Reported Jan 17 11:00 PM — Feb 1 11:00 PM, Oberpullendorf, Weather by CustomWeather, © 2014

Note: Actual official high and low records may vary slightly from our data, if they occured in-between our weather recording intervals... More about our weather records

Advertising

Oberpullendorf weather history for previous 24 hours

 ConditionsComfort  
Time TempWeatherWind HumidityBarometerVisibility
11:00 PM
Feb 1
32 °FChilly.2 mph87%29.41 "HgN/A
10:00 PM32 °FFog.2 mph87%29.41 "Hg2 mi
9:00 PM33 °FChilly.2 mph88%29.41 "HgN/A
8:00 PM33 °FChilly.No wind88%29.38 "HgN/A
7:00 PM33 °FFog.1 mph87%29.38 "Hg2 mi
6:00 PM33 °FChilly.1 mph87%29.35 "HgN/A
5:00 PM33 °FChilly.1 mph85%29.35 "HgN/A
4:00 PM35 °FChilly.1 mph81%29.32 "HgN/A
3:00 PM35 °FChilly.1 mph82%29.32 "HgN/A
2:00 PM34 °FChilly.1 mph83%29.32 "HgN/A
1:00 PM34 °FChilly.2 mph84%29.32 "HgN/A
12:00 PM35 °FChilly.1 mph79%29.32 "HgN/A
11:00 AM32 °FChilly.1 mph87%29.32 "HgN/A
10:00 AM30 °FFog.1 mph91%29.32 "Hg1 mi
9:00 AM27 °FChilly.No wind95%29.32 "HgN/A
8:00 AM27 °FChilly.1 mph95%29.29 "HgN/A
7:00 AM26 °FFog.1 mph97%29.29 "Hg0 mi
6:00 AM26 °FFog.1 mph96%29.26 "Hg1 mi
5:00 AM26 °FChilly.2 mph97%29.23 "HgN/A
4:00 AM27 °FChilly.1 mph94%29.23 "HgN/A
3:00 AM26 °FChilly.1 mph93%29.23 "HgN/A
2:00 AM26 °FChilly.1 mph91%29.23 "HgN/A
1:00 AM27 °FPassing clouds.3 mph91%29.23 "Hg9 mi
12:00 AM27 °FChilly.2 mph90%29.23 "HgN/A
Weather by CustomWeather, © 2014

See weather overviewHow to use our weather pages